| time (UTC) | temp F | wind direction | speed MPH | gust MPH | rain 1hr in | rain 24hr in | rain mn in | humidity % | barometer mb |
| 20260505095026 | 57 | 199 | 4.0 | 0.0 | 0.00 | 0.00 | 0.28 | 87 | 1010.1 |
| 20260505094701 | 56 | 213 | 4.0 | 0.0 | 0.00 | 0.00 | 0.28 | 88 | 1009.2 |
| 20260505094548 | 57 | 196 | 3.0 | 0.0 | 0.00 | 0.00 | 0.28 | 88 | 1010.2 |
| 20260505094013 | 56 | 210 | 2.0 | 0.0 | 0.00 | 0.00 | 0.28 | 88 | 1010.2 |
| 20260505093519 | 56 | 218 | 2.0 | 0.0 | 0.00 | 0.00 | 0.28 | 90 | 1010.2 |
| 20260505093059 | 55 | 231 | 2.0 | 0.0 | 0.00 | 0.00 | 0.28 | 90 | 1009.2 |
| 20260505093022 | 56 | 231 | 2.0 | 0.0 | 0.00 | 0.00 | 0.28 | 91 | 1010.1 |
| 20260505092518 | 55 | 192 | 2.0 | 0.0 | 0.00 | 0.00 | 0.28 | 91 | 1010.1 |
| 20260505092026 | 55 | 173 | 1.0 | 0.0 | 0.00 | 0.00 | 0.28 | 92 | 1010.1 |
| 20260505091526 | 55 | 182 | 2.0 | 0.0 | 0.00 | 0.00 | 0.28 | 91 | 1010.1 |
| 20260505091513 | 54 | 182 | 2.0 | 0.0 | 0.00 | 0.00 | 0.28 | 91 | 1009.1 |
| 20260505091049 | 54 | 190 | 1.0 | 0.0 | 0.00 | 0.00 | 0.28 | 92 | 1010.1 |
| 20260505090526 | 54 | 226 | 0.0 | 0.0 | 0.00 | 0.00 | 0.28 | 93 | 1010.1 |
| 20260505090047 | 53 | 226 | 0.0 | 0.0 | 0.00 | 0.00 | 0.28 | 93 | 1009.0 |
| 20260505090028 | 54 | 226 | 1.0 | 0.0 | 0.00 | 0.00 | 0.28 | 93 | 1010.0 |
| 20260505085528 | 54 | 226 | 1.0 | 0.0 | 0.00 | 0.00 | 0.28 | 94 | 1010.0 |
| 20260505085029 | 54 | 226 | 1.0 | 0.0 | 0.00 | 0.00 | 0.28 | 94 | 1010.0 |
| 20260505084557 | 53 | 226 | 1.0 | 0.0 | 0.00 | 0.00 | 0.28 | 95 | 1009.0 |
| 20260505084519 | 53 | 226 | 1.0 | 0.0 | 0.00 | 0.00 | 0.28 | 95 | 1009.9 |
| 20260505084016 | 53 | 226 | 1.0 | 0.0 | 0.00 | 0.00 | 0.28 | 95 | 1010.0 |
| 20260505083524 | 53 | 226 | 1.0 | 0.0 | 0.00 | 0.00 | 0.28 | 94 | 1010.0 |
| 20260505083028 | 53 | 226 | 1.0 | 0.0 | 0.00 | 0.00 | 0.28 | 94 | 1009.9 |
| 20260505083014 | 52 | 226 | 1.0 | 0.0 | 0.00 | 0.00 | 0.28 | 94 | 1009.0 |
| 20260505082537 | 53 | 226 | 1.0 | 0.0 | 0.00 | 0.00 | 0.28 | 94 | 1010.0 |
| 20260505082022 | 53 | 210 | 1.0 | 0.0 | 0.00 | 0.00 | 0.28 | 95 | 1010.0 |
| 20260505081555 | 52 | 210 | 1.0 | 0.0 | 0.00 | 0.00 | 0.28 | 95 | 1009.2 |
| 20260505081523 | 53 | 210 | 1.0 | 0.0 | 0.00 | 0.00 | 0.28 | 95 | 1010.1 |
| 20260505081026 | 53 | 204 | 1.0 | 0.0 | 0.00 | 0.00 | 0.28 | 95 | 1010.2 |
| 20260505080542 | 53 | 202 | 1.0 | 0.0 | 0.00 | 0.00 | 0.28 | 95 | 1010.2 |
| 20260505080050 | 52 | 191 | 2.0 | 0.0 | 0.00 | 0.00 | 0.28 | 95 | 1009.2 |
| 20260505080018 | 53 | 191 | 2.0 | 0.0 | 0.00 | 0.00 | 0.28 | 95 | 1010.2 |
| 20260505075524 | 53 | 191 | 2.0 | 0.0 | 0.00 | 0.00 | 0.28 | 95 | 1010.2 |
| 20260505075012 | 53 | 246 | 2.0 | 0.0 | 0.00 | 0.00 | 0.28 | 96 | 1010.1 |
| 20260505074604 | 52 | 269 | 2.0 | 0.0 | 0.00 | 0.00 | 0.28 | 96 | 1009.1 |
| 20260505074529 | 53 | 274 | 2.0 | 0.0 | 0.00 | 0.00 | 0.28 | 96 | 1010.1 |
| 20260505074114 | 53 | 255 | 2.0 | 0.0 | 0.00 | 0.00 | 0.28 | 95 | 1009.1 |
| 20260505073515 | 52 | 255 | 1.0 | 0.0 | 0.00 | 0.00 | 0.28 | 96 | 1010.2 |
| 20260505073117 | 52 | 255 | 2.0 | 0.0 | 0.00 | 0.00 | 0.28 | 96 | 1009.2 |
| 20260505073040 | 52 | 255 | 2.0 | 0.0 | 0.00 | 0.00 | 0.28 | 96 | 1010.1 |
| 20260505072523 | 52 | 271 | 2.0 | 0.0 | 0.00 | 0.00 | 0.28 | 96 | 1010.2 |
| 20260505072023 | 52 | 257 | 2.0 | 0.0 | 0.00 | 0.00 | 0.28 | 96 | 1010.2 |
| 20260505071534 | 52 | 298 | 2.0 | 0.0 | 0.00 | 0.00 | 0.28 | 96 | 1010.3 |
| 20260505071521 | 51 | 298 | 2.0 | 0.0 | 0.00 | 0.00 | 0.28 | 96 | 1009.3 |
| 20260505071053 | 52 | 271 | 2.0 | 0.0 | 0.00 | 0.00 | 0.28 | 96 | 1010.4 |
| 20260505070539 | 51 | 271 | 1.0 | 0.0 | 0.00 | 0.00 | 0.28 | 96 | 1010.4 |
| 20260505070036 | 51 | 322 | 1.0 | 0.0 | 0.00 | 0.00 | 0.28 | 96 | 1010.5 |
| 20260505070017 | 51 | 322 | 1.0 | 0.0 | 0.00 | 0.00 | 0.28 | 96 | 1009.6 |
| 20260505065536 | 51 | 322 | 1.0 | 0.0 | 0.00 | 0.00 | 0.28 | 96 | 1010.5 |
| 20260505065033 | 51 | 347 | 0.0 | 0.0 | 0.00 | 0.00 | 0.28 | 96 | 1010.5 |
| 20260505064655 | 50 | 347 | 0.0 | 0.0 | 0.00 | 0.00 | 0.28 | 96 | 1009.6 |
| 20260505064542 | 51 | 103 | 0.0 | 0.0 | 0.00 | 0.00 | 0.28 | 96 | 1010.6 |
| 20260505064020 | 51 | 103 | 0.0 | 0.0 | 0.00 | 0.00 | 0.28 | 96 | 1010.7 |
| 20260505063518 | 50 | 103 | 0.0 | 0.0 | 0.00 | 0.00 | 0.28 | 96 | 1010.7 |
| 20260505063041 | 50 | 103 | 0.0 | 0.0 | 0.00 | 0.00 | 0.28 | 96 | 1010.9 |
| 20260505062522 | 50 | 115 | 0.0 | 0.0 | 0.00 | 0.00 | 0.28 | 96 | 1011.0 |
| 20260505062029 | 50 | 115 | 0.0 | 0.0 | 0.00 | 0.00 | 0.28 | 95 | 1011.0 |
| 20260505061612 | 49 | 115 | 0.0 | 0.0 | 0.00 | 0.00 | 0.28 | 95 | 1010.2 |
| 20260505061528 | 50 | 115 | 0.0 | 0.0 | 0.00 | 0.00 | 0.28 | 95 | 1010.1 |
| 20260505061030 | 50 | 115 | 1.0 | 0.0 | 0.00 | 0.00 | 0.27 | 95 | 1010.2 |
| 20260505060513 | 50 | 115 | 1.0 | 0.0 | 0.00 | 0.00 | 0.27 | 95 | 1010.3 |
| 20260505060038 | 49 | 115 | 2.0 | 0.0 | 0.00 | 0.00 | 0.27 | 95 | 1010.3 |
| 20260505060018 | 50 | 115 | 2.0 | 0.0 | 0.00 | 0.00 | 0.27 | 95 | 1010.3 |
| 20260505055517 | 50 | 115 | 1.0 | 0.0 | 0.00 | 0.00 | 0.26 | 95 | 1010.3 |
| 20260505055042 | 50 | 116 | 1.0 | 0.0 | 0.00 | 0.00 | 0.25 | 95 | 1010.4 |
| 20260505054616 | 49 | 130 | 1.0 | 0.0 | 0.00 | 0.00 | 0.25 | 95 | 1010.3 |
| 20260505054547 | 50 | 130 | 1.0 | 0.0 | 0.00 | 0.00 | 0.25 | 95 | 1010.3 |
| 20260505054013 | 49 | 130 | 2.0 | 0.0 | 0.00 | 0.00 | 0.24 | 95 | 1010.4 |
| 20260505053525 | 49 | 130 | 2.0 | 0.0 | 0.00 | 0.00 | 0.24 | 95 | 1010.5 |
| 20260505053105 | 49 | 116 | 2.0 | 0.0 | 0.00 | 0.00 | 0.22 | 95 | 1010.5 |
| 20260505053015 | 49 | 116 | 2.0 | 0.0 | 0.00 | 0.00 | 0.22 | 95 | 1010.5 |
| 20260504221603 | 47 | 307 | 1.0 | 0.0 | 0.00 | 0.00 | 0.00 | 94 | 1012.5 |
| 20260504221529 | 48 | 307 | 1.0 | 0.0 | 0.00 | 0.00 | 0.00 | 94 | 1013.4 |
| 20260504221022 | 48 | 307 | 2.0 | 0.0 | 0.00 | 0.00 | 0.00 | 94 | 1013.4 |
| 20260504220526 | 47 | 57 | 3.0 | 0.0 | 0.00 | 0.00 | 0.00 | 93 | 1013.4 |
| 20260504220156 | 47 | 59 | 4.0 | 0.0 | 0.00 | 0.00 | 0.00 | 93 | 1012.5 |
| 20260504220044 | 47 | 59 | 4.0 | 0.0 | 0.00 | 0.00 | 0.10 | 93 | 1013.4 |
| 20260504215530 | 47 | 59 | 5.0 | 0.0 | 0.00 | 0.00 | 0.10 | 93 | 1013.4 |
| 20260504215051 | 47 | 59 | 3.0 | 0.0 | 0.00 | 0.00 | 0.10 | 93 | 1013.5 |
| 20260504214602 | 47 | 59 | 2.0 | 0.0 | 0.00 | 0.00 | 0.10 | 93 | 1012.6 |
| 20260504214531 | 47 | 59 | 2.0 | 0.0 | 0.00 | 0.00 | 0.10 | 93 | 1013.5 |
| 20260504214018 | 47 | 59 | 3.0 | 0.0 | 0.00 | 0.00 | 0.10 | 93 | 1013.6 |
| 20260504213524 | 47 | 59 | 4.0 | 0.0 | 0.00 | 0.00 | 0.10 | 93 | 1013.7 |
| 20260504213058 | 47 | 59 | 4.0 | 0.0 | 0.00 | 0.00 | 0.10 | 93 | 1012.8 |
| 20260504213027 | 47 | 59 | 3.0 | 0.0 | 0.00 | 0.00 | 0.10 | 93 | 1013.7 |
| 20260504212542 | 47 | 59 | 2.0 | 0.0 | 0.00 | 0.00 | 0.10 | 92 | 1013.6 |
| 20260504212028 | 47 | 59 | 1.0 | 0.0 | 0.00 | 0.00 | 0.10 | 92 | 1013.6 |
| 20260504211619 | 47 | 59 | 2.0 | 0.0 | 0.00 | 0.00 | 0.10 | 92 | 1012.8 |
| 20260504211529 | 47 | 59 | 2.0 | 0.0 | 0.00 | 0.00 | 0.10 | 92 | 1013.7 |
| 20260504211024 | 47 | 59 | 1.0 | 0.0 | 0.00 | 0.00 | 0.10 | 92 | 1013.8 |
| 20260504210522 | 48 | 60 | 1.0 | 0.0 | 0.00 | 0.00 | 0.10 | 92 | 1013.7 |
| 20260504210108 | 47 | 60 | 2.0 | 0.0 | 0.00 | 0.00 | 0.10 | 92 | 1012.9 |
| 20260504210043 | 48 | 60 | 3.0 | 0.0 | 0.00 | 0.00 | 0.10 | 92 | 1013.8 |
| 20260504205544 | 48 | 60 | 4.0 | 0.0 | 0.00 | 0.00 | 0.10 | 91 | 1013.8 |
| 20260504205036 | 48 | 63 | 3.0 | 0.0 | 0.00 | 0.00 | 0.10 | 91 | 1013.9 |
| 20260504204524 | 48 | 55 | 2.0 | 0.0 | 0.00 | 0.00 | 0.10 | 92 | 1013.7 |
| 20260504204503 | 48 | 55 | 2.0 | 0.0 | 0.00 | 0.00 | 0.10 | 92 | 1012.8 |
| 20260504204040 | 48 | 52 | 3.0 | 0.0 | 0.00 | 0.00 | 0.10 | 92 | 1013.8 |
| 20260504203520 | 49 | 71 | 3.0 | 0.0 | 0.00 | 0.00 | 0.10 | 92 | 1013.8 |
| 20260504203041 | 48 | 71 | 4.0 | 0.0 | 0.00 | 0.00 | 0.10 | 92 | 1012.9 |
| 20260504203016 | 49 | 71 | 4.0 | 0.0 | 0.00 | 0.00 | 0.10 | 92 | 1013.8 |
| 20260504202522 | 49 | 71 | 4.0 | 0.0 | 0.00 | 0.00 | 0.10 | 92 | 1013.9 |
| 20260504202026 | 49 | 71 | 5.0 | 0.0 | 0.00 | 0.00 | 0.10 | 92 | 1013.8 |
| 20260504201554 | 48 | 66 | 5.0 | 0.0 | 0.00 | 0.00 | 0.10 | 92 | 1012.9 |
| 20260504201516 | 49 | 60 | 5.0 | 0.0 | 0.00 | 0.00 | 0.10 | 92 | 1013.8 |
| 20260504201023 | 49 | 92 | 4.0 | 0.0 | 0.00 | 0.00 | 0.10 | 92 | 1014.0 |
| 20260504200524 | 49 | 70 | 3.0 | 0.0 | 0.00 | 0.00 | 0.10 | 92 | 1014.1 |
| 20260504200059 | 48 | 70 | 2.0 | 0.0 | 0.00 | 0.00 | 0.10 | 91 | 1013.0 |
| 20260504200027 | 49 | 70 | 2.0 | 0.0 | 0.00 | 0.00 | 0.10 | 91 | 1013.9 |
| 20260504195532 | 49 | 49 | 1.0 | 0.0 | 0.00 | 0.00 | 0.10 | 91 | 1014.0 |
| 20260504195040 | 49 | 51 | 1.0 | 0.0 | 0.00 | 0.00 | 0.10 | 91 | 1014.2 |
| 20260504194627 | 49 | 59 | 1.0 | 0.0 | 0.00 | 0.00 | 0.10 | 91 | 1013.3 |
| 20260504194538 | 49 | 357 | 1.0 | 0.0 | 0.00 | 0.00 | 0.10 | 91 | 1014.2 |